User: anonymous   Login
Location: Sunny Point
(33.0946°N, 85.0574°W)
Time: 14:23:25
(UTC+00:00)
Language:

BEESAT - Orbit

View from above orbital plane
View from above orbital plane
View from above satellite
View from above satellite

Ground track
Ground track

The orbit data is extracted from the following two-line orbital elements,

1 35933U 09051C   24193.58518398  .00001252  00000-0  27755-3 0  9993
2 35933  98.4613  78.2604 0004232 253.2828 106.7907 14.58904159786269
Epoch (UTC): 11 July 2024 14:02:39
Eccentricity: 0.0004232
inclination: 98.4613°
perigee height: 694 km
apogee height: 700 km
right ascension of ascending node: 78.2604°
argument of perigee: 253.2828°
revolutions per day: 14.58904159
mean anomaly at epoch: 106.7907°
orbit number at epoch: 78626

The dashed part of the orbit path shows where the satellite is in the earth's shadow,  

DLR